Theta_e
314 315 315 316 313 313 315 321 319 324 315 318 321 319 323 320 320 322 323 323 322 323 322 323 323 323 321 319 320 319 316 319 317 318 317 318 318 319 319 315 319 317 315 315
313 315 316 317 313 313 320 322 324 321 316 316 319 321 322 321 320 321 322 323 323 323 324 323 324 322 320 321 319 319 318 318 316 319 319 319 317 317 316 317 312 315 311 313
312 315 317 319 314 314 319 325 319 320 324 326 324 323 322 323 322 322 323 322 323 323 323 323 324 322 321 319 316 315 318 319 317 316 317 315 315 314 314 314 312 315 315 316
310 314 319 319 314 315 324 325 322 318 317 318 322 322 322 323 323 322 322 322 323 323 322 323 323 322 321 320 316 318 318 318 319 318 315 315 314 313 312 312 313 313 313 316
309 312 318 319 318 318 323 325 326 320 319 316 323 319 321 323 322 322 322 322 322 322 322 322 322 322 320 320 318 319 318 318 316 315 317 315 313 313 314 314 315 316 315 315
309 310 315 320 320 322 321 323 323 327 324 320 322 322 323 323 322 322 322 321 320 318 320 319 318 318 318 319 318 319 319 313 311 314 314 312 312 315 314 314 314 314 315 314
308 310 312 316 319 320 324 323 326 325 317 322 322 323 322 323 322 322 321 322 320 318 317 317 316 315 316 319 317 320 314 313 310 307 308 306 315 313 314 315 314 314 314 314
308 309 310 314 316 319 322 322 325 322 311 324 322 322 322 322 322 321 320 320 320 318 320 313 310 309 306 311 315 316 318 309 305 311 311 312 314 315 315 314 315 314 314 312
308 309 310 312 315 315 314 323 324 322 321 319 323 322 321 320 320 320 320 320 320 321 315 306 309 312 313 316 316 311 315 309 306 302 304 306 312 313 313 313 310 313 312 310
308 309 310 313 314 315 316 316 320 323 323 322 323 322 321 323 322 315 320 320 321 321 309 310 307 310 316 315 313 308 306 310 306 303 303 308 312 313 313 310 310 311 311 309
308 308 309 313 315 315 315 314 320 319 323 322 322 323 323 323 323 315 321 315 318 311 309 304 308 311 311 313 315 311 307 307 310 310 309 308 313 314 310 311 313 311 309 308
308 308 309 311 314 315 316 314 316 316 322 321 322 322 322 323 323 322 320 317 321 319 310 309 308 312 310 310 311 314 313 311 310 309 308 310 314 314 314 314 311 310 307 306
308 308 308 309 312 314 315 315 314 315 316 318 318 318 319 320 322 322 320 321 320 320 319 313 312 310 308 307 309 314 313 315 310 312 314 314 314 313 312 311 310 309 307 303
308 308 308 309 310 312 313 314 316 316 315 317 320 319 317 316 319 322 321 320 321 321 319 310 308 307 314 307 309 310 312 315 314 311 312 312 311 311 310 309 307 304 301 300
308 309 309 309 310 311 312 313 314 316 317 314 318 317 318 315 315 317 318 320 320 320 315 305 306 312 311 314 309 308 316 313 307 307 314 313 311 309 309 306 303 301 301 300
309 309 309 310 310 311 312 313 313 316 319 316 311 317 316 314 316 319 319 319 319 318 316 313 315 318 314 306 307 313 314 313 314 314 313 313 310 309 306 304 302 301 300 298
310 310 310 311 311 313 316 315 317 314 315 313 311 314 313 315 317 318 318 318 318 317 316 315 314 315 315 305 309 311 312 312 312 312 310 307 307 306 304 302 301 298 297 296
311 311 312 312 312 314 315 314 313 315 314 314 304 307 312 314 314 314 313 314 314 314 314 313 312 313 311 307 310 312 312 311 310 309 308 307 305 303 302 301 297 297 296 295
312 312 312 313 312 313 314 313 312 314 315 312 307 305 306 311 310 309 309 310 306 309 309 309 310 305 310 310 312 312 310 309 308 307 306 303 303 300 298 297 296 296 296 295
310 311 310 310 311 312 312 312 311 312 313 312 307 310 308 309 308 306 307 307 304 307 305 307 304 306 309 310 309 309 308 307 306 304 302 299 298 297 297 296 296 295 295 294
312 310 311 312 312 312 312 311 308 309 308 308 309 311 308 309 304 304 307 303 303 307 305 306 306 306 306 307 307 306 306 305 303 301 298 297 296 296 295 295 295 294 292 291
311 311 310 311 311 311 307 305 304 304 308 304 306 306 307 307 308 305 304 305 303 307 305 305 306 304 304 304 304 304 303 301 298 297 296 295 295 295 293 292 290 290 291 291
308 307 306 305 302 305 308 310 306 305 302 302 303 301 304 305 305 302 301 305 306 304 305 304 302 304 304 303 301 300 299 298 296 296 295 295 292 292 291 290 290 290 290 291
303 301 301 302 302 301 300 301 301 301 302 302 303 300 302 301 302 300 304 302 302 305 303 300 303 304 302 301 300 299 299 298 297 296 295 293 292 291 290 290 291 291 291 291
300 300 302 300 298 298 298 299 300 300 300 301 300 300 301 300 300 300 300 302 304 304 304 301 302 302 301 300 299 298 297 297 296 293 292 291 290 291 290 291 290 291 291 291
298 298 298 298 299 299 299 299 299 300 300 300 300 300 302 301 301 302 304 304 304 302 300 302 301 301 300 299 299 298 295 293 293 292 291 291 291 291 291 291 291 292 292 292
298 297 299 299 299 298 298 299 299 300 299 300 300 301 299 299 301 302 302 302 300 301 302 301 300 300 299 298 296 294 294 294 293 293 291 291 291 291 291 292 291 292 292 292
Wind_Speed
7 8 13 15 18 21 21 11 1 10 12 4 4 2 5 2 4 2 3 3 5 3 4 5 5 4 4 5 8 3 3 3 3 4 3 3 1 3 4 4 4 1 4 5
7 8 12 16 20 25 21 6 5 10 15 3 2 7 2 1 5 4 0 5 6 5 4 5 9 5 7 11 5 1 3 2 3 3 4 4 1 2 2 4 4 5 5 5
7 7 11 17 22 26 20 4 2 4 9 9 4 5 4 2 7 3 4 5 4 1 5 5 4 4 3 7 4 3 3 2 5 5 2 1 2 5 4 2 3 4 6 6
8 7 9 16 21 25 11 5 4 10 4 6 5 6 8 5 2 1 3 1 3 4 3 5 5 5 4 3 1 1 3 2 4 5 6 4 3 5 7 5 6 3 7 3
8 7 9 14 19 18 11 4 3 12 11 22 4 6 5 9 8 6 4 3 6 8 4 3 7 8 5 4 4 2 4 1 3 3 7 7 4 8 8 4 2 3 4 4
9 7 8 12 15 15 6 1 0 1 3 5 3 4 2 3 10 3 4 4 11 13 7 22 19 19 17 10 6 3 3 3 3 3 5 6 4 3 4 3 5 3 3 3
9 7 8 10 12 12 6 4 4 5 3 1 4 7 6 7 7 6 13 16 10 11 17 17 14 18 16 12 10 7 4 4 3 2 4 3 4 5 7 5 7 7 10 11
10 8 8 8 11 12 8 8 6 4 1 1 3 6 11 21 27 13 20 14 14 16 6 4 5 5 6 4 8 6 5 4 3 3 1 6 6 2 3 4 2 6 7 9
10 8 8 9 9 9 7 12 9 4 7 3 4 3 20 5 4 4 5 10 8 5 6 4 4 4 6 4 2 11 7 6 4 2 4 6 6 4 4 0 3 5 10 8
11 9 9 9 9 8 9 10 9 6 5 6 7 4 6 11 9 4 5 3 3 4 3 3 3 3 1 5 8 4 3 1 4 2 3 7 8 0 4 4 5 10 7 4
12 10 9 9 9 8 8 10 8 7 5 7 5 7 8 10 16 5 10 4 1 4 4 3 4 3 4 1 7 7 7 6 4 2 2 7 10 5 6 5 11 10 3 2
13 11 10 9 9 9 9 10 8 7 4 5 6 10 9 12 10 11 18 4 6 7 4 1 2 2 1 1 2 3 2 7 6 8 6 8 8 7 10 10 13 3 1 3
14 11 10 9 9 9 8 10 9 8 7 7 5 5 5 7 9 15 8 5 7 8 6 7 3 3 3 3 4 1 3 11 3 4 6 8 17 16 12 9 5 4 5 3
14 12 11 9 9 9 7 9 8 7 6 5 2 4 5 5 9 10 10 12 9 14 9 5 3 2 11 4 4 4 6 3 1 2 7 14 11 12 8 1 1 6 7 4
15 13 11 10 9 8 6 7 7 7 4 5 4 4 3 5 7 6 6 7 11 7 4 3 3 4 1 1 2 3 5 5 4 5 6 5 8 12 3 1 9 8 4 1
15 14 12 11 10 9 9 3 6 8 8 4 2 2 1 3 7 7 8 8 5 4 5 3 4 3 6 3 3 7 12 13 14 8 8 6 8 8 4 10 9 6 3 2
16 14 12 12 11 12 7 4 4 10 8 4 3 0 1 7 10 7 6 7 4 4 5 6 4 3 4 2 4 7 10 5 7 8 8 8 8 4 10 11 7 5 1 4
15 14 13 12 11 11 7 5 6 10 7 4 3 2 1 8 3 3 3 3 4 1 2 4 3 4 0 4 11 17 19 11 11 8 2 5 8 8 9 6 4 0 4 8
16 12 12 11 8 6 7 5 4 8 4 6 4 5 3 7 3 4 3 3 1 2 2 4 4 1 5 6 6 7 16 16 13 9 12 10 10 9 7 2 3 5 9 14
15 13 6 4 10 7 9 2 2 4 6 5 4 7 2 7 5 2 4 2 2 1 3 4 2 3 14 11 2 11 16 10 15 17 12 12 8 4 1 2 7 11 14 19
17 8 4 9 16 8 6 4 1 2 1 6 6 10 6 7 4 3 5 3 2 2 3 3 2 3 5 4 11 13 10 14 14 11 13 11 7 2 3 7 12 17 19 17
17 12 14 12 5 3 3 3 1 2 3 3 4 4 6 6 5 4 6 3 2 4 10 2 3 1 15 12 11 12 16 16 14 11 8 5 2 5 10 13 16 15 14 17
14 4 4 3 2 3 5 7 2 2 5 5 5 3 4 5 5 4 2 5 5 5 3 3 1 9 13 16 16 14 13 14 13 7 3 3 9 11 13 14 14 15 18 18
4 3 3 1 2 2 2 1 2 3 2 9 10 6 3 2 2 3 4 2 2 2 2 3 1 11 12 15 14 12 11 8 5 4 8 12 15 16 15 15 16 17 19 18
4 3 2 2 3 3 2 3 4 5 7 10 6 5 3 1 2 0 3 2 2 1 1 2 5 12 16 14 10 9 8 3 4 9 14 16 15 15 17 17 19 19 19 18
3 4 3 5 5 4 9 10 8 8 10 7 4 2 2 2 1 1 1 3 1 2 1 10 11 9 10 11 7 3 1 8 14 15 14 15 16 17 19 21 18 15 16 19
3 3 8 10 11 8 7 8 8 7 4 2 2 3 2 1 1 1 3 3 2 6 7 13 11 11 8 5 4 4 12 17 17 18 18 19 19 20 20 17 16 18 19 21
Wind_Direction
178 168 175 176 176 169 165 169 111 184 172 131 193 228 268 103 93 325 354 358 41 118 81 67 80 103 69 347 338 55 12 123 86 118 95 41 350 67 77 108 296 63 136 276
172 163 174 174 172 169 162 179 168 174 173 143 249 276 82 28 148 227 175 35 49 24 85 82 101 87 32 14 47 97 351 9 59 22 7 332 283 122 143 129 92 180 132 259
170 156 174 175 173 173 182 208 95 137 197 242 207 210 139 99 33 35 54 112 79 34 71 78 120 103 79 54 66 43 18 54 138 174 171 119 345 334 350 85 117 217 217 243
167 151 168 176 176 182 195 232 188 169 200 268 255 181 168 154 141 313 104 77 206 136 121 120 108 100 121 123 134 354 73 107 30 4 351 335 344 340 331 308 262 193 262 221
164 154 157 179 182 192 207 302 52 173 175 210 253 164 210 165 187 144 224 178 217 114 74 69 165 144 170 169 217 173 33 98 58 319 23 18 321 301 276 252 353 8 39 3
162 158 150 170 182 187 195 202 124 99 54 193 113 211 221 205 118 60 286 148 88 76 92 78 67 80 67 108 133 107 85 106 75 267 355 346 10 236 316 322 10 327 36 33
163 161 153 159 172 173 168 133 97 90 286 83 187 157 217 134 114 105 30 109 96 118 117 98 74 58 45 74 58 105 114 87 89 221 0 25 235 289 96 87 30 11 76 67
164 161 157 155 167 181 182 172 149 147 209 277 293 142 111 82 89 74 60 50 120 138 70 62 44 358 23 6 35 39 137 116 71 113 219 299 328 28 80 103 85 54 88 75
166 161 154 155 167 174 174 163 161 149 125 304 318 152 136 128 102 52 61 106 123 105 71 75 139 194 200 161 106 31 55 88 108 80 136 210 218 117 87 337 238 69 90 63
169 164 157 151 156 159 154 158 160 137 109 36 41 106 134 131 99 102 118 136 86 97 85 100 155 250 242 163 166 187 61 16 162 182 211 281 249 312 89 108 230 127 108 66
173 167 162 157 154 150 149 138 147 163 110 79 85 114 113 145 139 133 155 88 343 65 82 131 210 184 247 125 161 174 162 154 188 192 232 277 204 85 150 158 133 130 85 352
176 173 168 164 157 149 151 139 144 142 119 133 109 96 106 130 140 155 165 163 152 150 94 169 148 196 351 124 235 180 140 184 178 180 213 225 180 160 172 199 158 151 81 182
180 177 173 170 164 167 167 146 149 147 108 110 142 137 150 135 151 171 158 175 154 166 141 138 153 200 139 168 240 325 309 192 194 110 253 152 145 156 165 157 155 309 290 170
184 180 177 173 168 180 176 159 152 147 119 112 133 162 201 179 171 175 188 182 168 158 161 114 145 176 192 208 222 163 220 329 222 278 110 108 151 170 155 87 277 153 127 128
186 185 179 173 172 174 163 157 157 154 151 139 118 174 233 206 178 181 193 182 186 165 113 99 209 225 140 9 80 251 205 201 160 231 210 182 179 179 168 106 139 128 151 244
185 186 182 176 171 160 153 132 166 177 163 134 88 159 158 166 164 142 151 165 153 158 149 187 226 241 201 146 211 255 249 260 243 173 164 140 138 163 172 148 143 172 181 312
182 184 179 176 173 167 150 148 151 180 178 149 80 340 232 157 144 146 159 183 174 154 170 194 210 270 202 134 212 236 227 217 187 166 147 123 158 191 171 157 166 167 146 321
176 176 176 173 171 164 137 130 143 172 168 156 112 236 276 164 135 130 147 164 211 218 206 166 184 277 60 247 242 242 245 201 158 163 139 125 136 131 139 166 169 308 315 302
172 166 158 155 160 158 173 176 163 193 187 149 137 153 208 161 116 113 125 179 90 258 216 195 166 216 226 246 252 254 181 173 174 147 133 131 127 138 132 108 357 314 294 289
162 158 150 168 166 151 162 171 211 207 198 170 165 159 151 156 161 109 137 174 191 199 240 171 189 250 255 236 268 168 168 159 149 142 146 142 129 115 103 314 294 291 297 303
172 168 168 160 151 143 172 189 156 185 259 200 185 186 147 157 127 166 198 174 169 230 211 195 232 253 244 189 166 161 159 138 129 138 137 122 124 121 275 282 291 298 300 304
173 163 148 146 158 171 130 187 132 171 215 148 159 108 135 137 154 127 173 163 163 240 149 188 249 239 125 131 133 133 129 132 126 125 124 132 189 282 295 297 299 301 305 310
137 99 107 112 121 191 198 193 220 163 155 159 154 92 134 139 165 109 138 184 212 146 175 227 249 138 136 128 126 134 142 146 147 148 176 294 316 317 316 315 314 312 313 318
91 112 97 35 136 52 49 16 53 79 216 164 151 113 135 126 119 132 171 178 113 213 210 231 113 129 141 147 144 157 165 182 207 273 304 310 315 313 314 318 320 318 318 319
86 76 87 89 118 85 131 126 112 105 155 150 103 87 110 82 109 165 104 144 208 240 96 30 101 145 140 143 154 148 146 180 278 302 305 305 306 310 313 318 319 321 320 319
76 79 105 136 111 84 94 103 93 123 132 105 82 98 98 54 50 193 213 172 80 63 274 158 144 152 160 163 163 173 232 314 312 312 311 312 316 314 313 313 316 318 312 311
70 75 104 106 101 106 96 94 91 95 92 64 52 62 70 269 39 43 13 45 165 186 165 169 163 156 152 174 199 282 319 316 311 311 312 311 310 308 307 307 318 321 315 313